Weather History for Lorain / Elyria, OH

Change the Weather History Date:

Saturday, October 12, 2013

  Actual Average (KCLE) Record (KCLE)
Temperature  
Mean Temperature 62 °F 55 °F  
Max Temperature 77 °F 64 °F 85 °F (1893)
Min Temperature 48 °F 46 °F 26 °F (1876)
Degree Days  
Heating Degree Days 4 10  
Month to date heating degree days 105  
Since 1 July heating degree days 208  
Cooling Degree Days 0 0  
Month to date cooling degree days 10  
Year to date cooling degree days 814  
Growing Degree Days 12 (Base 50)    
Moisture  
Dew Point 53 °F    
Average Humidity 78    
Maximum Humidity 94    
Minimum Humidity 54    
Precipitation  
Precipitation 0.00 in 0.10 in 0.73 in (1954)
Month to date precipitation 1.27  
Year to date precipitation 30.62  
Snow  
Snow 0.00 in 0.00 in - ()
Month to date snowfall 0.0  
Since 1 July snowfall 0.0  
Since 1 September snowfall 0.0  
Snow Depth -    
Sea Level Pressure  
Sea Level Pressure 30.10 in    
Wind  
Wind Speed 1 mph (ESE)    
Max Wind Speed 8 mph    
Max Gust Speed -    
Visibility 8 miles    
Events      
T = Trace of Precipitation, MM = Missing Value Source: NWS Daily Summary

Daily Weather History Graph

Daily Weather History Graph

Search for Another Location

Airport:

Trip Planner

Search our weather history database for the weather conditions in past years. The results will help you decide how hot, cold, wet, or windy it might be!

Date:

Astronomy

Oct. 12, 2013 Rise Set
Actual Time 7:37 AM EDT 6:52 PM EDT
Civil Twilight 7:09 AM EDT 7:19 PM EDT
Nautical Twilight 6:37 AM EDT 7:51 PM EDT
Astronomical Twilight 6:05 AM EDT 8:23 PM EDT
Moon 3:04 PM EDT (10/12) 12:35 AM EDT (10/12)
Length of Visible Light 12h 10m
Length of Day
11h 14m
First Quarter, 58% of the Moon is Illuminated
Oct 12
First Quarter
Oct 18
Full
Oct 26
Last Quarter
Nov 3
New
Nov 10
First Quarter

Hourly Weather History & Observations

Time (EDT) Temp. Dew Point Humidity Pressure Visibility Wind Dir Wind Speed Gust Speed Precip Events Conditions
12:53 AM 54.0 °F 51.1 °F 90% 30.08 in 10.0 mi Calm Calm - N/A   Clear
1:53 AM 52.0 °F 48.9 °F 89% 30.09 in 9.0 mi Calm Calm - N/A   Partly Cloudy
2:38 AM 51.8 °F 50.0 °F 94% 30.09 in 1.8 mi SW 3.5 mph - N/A   Clear
2:53 AM 52.0 °F 48.9 °F 89% 30.09 in 3.0 mi Calm Calm - N/A   Clear
2:59 AM 51.8 °F 48.2 °F 88% 30.09 in 1.5 mi Calm Calm - N/A   Clear
3:20 AM 51.8 °F 48.2 °F 88% 30.09 in 3.0 mi Calm Calm - N/A   Clear
3:53 AM 50.0 °F 46.0 °F 86% 30.09 in 4.0 mi Calm Calm - N/A   Clear
4:00 AM 50.0 °F 46.4 °F 87% 30.09 in 2.0 mi Calm Calm - N/A   Clear
4:09 AM 48.2 °F 46.4 °F 93% 30.09 in 6.0 mi SSE 3.5 mph - N/A   Clear
4:53 AM 48.9 °F 46.9 °F 93% 30.09 in 7.0 mi Calm Calm - N/A   Clear
5:53 AM 48.9 °F 46.0 °F 90% 30.10 in 8.0 mi Calm Calm - N/A   Clear
6:53 AM 50.0 °F 46.9 °F 89% 30.12 in 5.0 mi Calm Calm - N/A   Scattered Clouds
7:53 AM 51.1 °F 46.0 °F 83% 30.12 in 10.0 mi Calm Calm - N/A   Clear
8:53 AM 57.0 °F 48.9 °F 74% 30.13 in 10.0 mi South 4.6 mph - N/A   Clear
9:53 AM 62.1 °F 48.9 °F 62% 30.13 in 10.0 mi SSE 3.5 mph - N/A   Clear
10:53 AM 66.9 °F 52.0 °F 59% 30.12 in 10.0 mi SE 3.5 mph - N/A   Clear
11:53 AM 71.1 °F 55.0 °F 57% 30.11 in 10.0 mi SE 3.5 mph - N/A   Clear
12:53 PM 73.9 °F 57.0 °F 55% 30.10 in 10.0 mi Variable 4.6 mph - N/A   Clear
1:53 PM 75.9 °F 57.9 °F 54% 30.09 in 10.0 mi Calm Calm - N/A   Scattered Clouds
2:53 PM 71.1 °F 55.9 °F 59% 30.09 in 10.0 mi NNE 8.1 mph - N/A   Overcast
3:53 PM 71.1 °F 57.0 °F 61% 30.09 in 10.0 mi NNE 4.6 mph - N/A   Overcast
4:53 PM 72.0 °F 57.9 °F 61% 30.08 in 10.0 mi NE 5.8 mph - N/A   Overcast
5:53 PM 71.1 °F 57.9 °F 63% 30.09 in 10.0 mi East 4.6 mph - N/A   Overcast
6:53 PM 69.1 °F 59.0 °F 70% 30.09 in 10.0 mi ENE 3.5 mph - N/A   Overcast
7:53 PM 66.0 °F 59.0 °F 78% 30.09 in 10.0 mi Calm Calm - N/A   Scattered Clouds
8:53 PM 62.1 °F 57.9 °F 86% 30.11 in 10.0 mi Calm Calm - N/A   Clear
9:53 PM 63.0 °F 59.0 °F 87% 30.12 in 10.0 mi Calm Calm - N/A   Overcast
10:53 PM 64.9 °F 60.1 °F 84% 30.12 in 10.0 mi Calm Calm - N/A   Overcast
11:53 PM 64.9 °F 60.1 °F 84% 30.12 in 10.0 mi South 4.6 mph - N/A   Overcast